BREEZE-M DEB (TANK), 39129

Orbit data source: Space-Track

BREEZE-M DEB (TANK), 39129 is space debris in HEO originally from a launch on Mon, 15 Apr 2013 UTC launched from the Tyuratam Missile And Space Complex (TTMTR). Debris objects in space refer to the collection of defunct objects orbiting the Earth. Examples of debris include non-operational satellites, rocket bodies, and fragments generated from explosions, collisions, or faulty payload assembly.

Loading next visibility...
Identifier
39129, 2013-014C
Orbit
HEO
Country
Flag of CISCIS
Related business
Manufacturer
Khrunichev
Mission
Spacecraft
Bus & Motor
BRIZ TANK, Unknown motor
Mass
~1,000 kg wet, 1,000 kg dry
Launch date (UTC)
2013-04-15 (13 years ago)
Launch vehicle
Unknown
Launch site
Tyuratam Missile And Space Complex (TTMTR)
Object type
Payload
Rocket body
Debris
Shape & HBR
Torus, 2.0 m
Radar Cross Section
8.218 m², Large (>1 m²)

Expand to show TLE details & history
Last TLE update: 20 hours ago

TLE from 20 hours ago
0 BREEZE-M DEB (TANK)
1 39129U 13014C   25302.71258069  .00010546  00000-0  10616-2 0  9995
2 39129  49.3559 222.5424 5898970 281.1010  21.3832  4.22598600179979
Epoch: 2025-10-29T17:06Z
TLE epoch observation values (Epoch: 2025-10-29T17:06:06.971Z)
Latitude
0.00003°
Longitude
-72.28536°
Altitude
3,093.001 km
Speed
7.715 km/s
True Right ascension
14h 50m 06s
True Declination
0° 00' 00"
Sunlit
Object was in daylight at epoch
Visualization orbit readout
Latitude
Unknown
Longitude
Unknown
Altitude
Unknown
Speed
Unknown
Apparent Right ascension
Unknown
Apparent Declination
Unknown
Sunlit
N/A
Visualization observer readout
Local Sidereal Time
08:53:17
Azimuth
Unknown
Elevation
Unknown
Doppler factor
Unknown
Orbital elements
Apogee altitude
19,316.237 km
Perigee altitude
249.55 km
Semi-major axis
16,161.03 km
Eccentricity
0.5899
Inclination
49.3559°
RAAN
222.5424°
Arg. of periapsis
281.101°
True anomaly
79.06664°
Mean anomaly
21.3832°
Eccentric anomaly
45.48307°
Mean motion
1.05643 °/min
Orbital period
340.77 mins
BSTAR
0.0010616
Loading maneuver chart data...
Computing Atmospheric mass density...
Loading historical data...
Loading historical data...
Loading historical data...
Loading historical data...
Loading historical data...
Loading historical data...
Loading historical data...
Other satellites on launch #14 in the year 2013 (2013-04-15 UTC)

Documentation

Showing up to 5 results
|